Flag for Canada Weather past 2 weeks in Saint-Georges, Quebec, Canada

Now
76 °F

Mild.


Feels Like: 78 °F
Forecast: N/A
Wind: 2 mph from Southwest

Location: Beauceville

Current Time: Jun 30, 2015 at 5:55:00 PM

Latest Report: Jun 30, 2015 at 5:00 PM


Visibility: N/A

Pressure: 29.92 "Hg

Humidity: 50%

Dew point: 56 °F

Location of Saint-GeorgesLocation

Historic Weather in Saint-Georges — Graph

°F

Saint-Georges temperature yesterday

Maximum temperature yesterday: 61 °F (at 5:00 PM)
Minimum temperature yesterday: 50 °F (at 12:00 AM)
Average temperature yesterday: 55 °F

Past Weeks' High & Low Weather Summary

 TemperatureHumidityPressure
High77 °F (Jun 18, 5:00 PM)100% (Jun 16, 1:00 PM)30.19 "Hg (Jun 16, 1:00 PM)
Low39 °F (Jun 20, 6:00 AM)29% (Jun 27, 3:00 PM)29.55 "Hg (Jun 23, 7:00 PM)
Average60 °F74%29.93 "Hg
* Reported Jun 15 4:00 PM — Jun 30 4:00 PM, Saint-Georges, Weather by CustomWeather, © 2015

Note: Actual official high and low records may vary slightly from our data, if they occured in-between our weather recording intervals... More about our weather records

Advertising

Saint-Georges weather history for previous 24 hours

 ConditionsComfort  
Time TempWeatherWind HumidityBarometerVisibility
4:00 PM
Tue, Jun 30
74 °FMild.3 mph54%29.93 "HgN/A
3:00 PM75 °FMild.2 mph55%29.93 "HgN/A
2:00 PM75 °FMild.5 mph59%29.93 "HgN/A
1:00 PM74 °FMild.2 mph55%29.94 "HgN/A
12:00 PM70 °FMild.3 mph62%29.95 "HgN/A
11:00 AM70 °FMild.5 mph69%29.95 "HgN/A
10:00 AM66 °FMild.5 mph72%29.96 "HgN/A
9:00 AM63 °FMild.1 mph81%29.96 "HgN/A
8:00 AM61 °FCool.No wind94%29.94 "HgN/A
7:00 AM58 °FCool.1 mph99%29.93 "HgN/A
6:00 AM55 °FCool.1 mphN/A29.93 "HgN/A
5:00 AM53 °FCool.1 mph100%29.92 "HgN/A
4:00 AM54 °FCool.No wind100%29.91 "HgN/A
3:00 AM55 °FCool.No wind100%29.90 "HgN/A
2:00 AM56 °FCool.No wind100%29.90 "HgN/A
1:00 AM56 °FCool.2 mph96%29.89 "HgN/A
12:00 AM57 °FCool.2 mph89%29.88 "HgN/A
11:00 PM
Mon, Jun 29
57 °FCool.1 mph89%29.87 "HgN/A
10:00 PM58 °FCool.No wind87%29.87 "HgN/A
9:00 PM59 °FCool.1 mph84%29.85 "HgN/A
8:00 PM60 °FCool.2 mph82%29.84 "HgN/A
7:00 PM61 °FCool.2 mph78%29.83 "HgN/A
6:00 PM61 °FCool.3 mph74%29.82 "HgN/A
5:00 PM61 °FCool.5 mph72%29.82 "HgN/A
Weather by CustomWeather, © 2015

See weather overviewHow to use our weather pages